Regional Weather Roundup
Issued by NWS

Home | Current Version | Previous Version | Text Only | Print | Product List | Glossary On
Versions: 1 2 3 4 5 6 7 8 9 10 11 12 13 14 15 16 17 18 19 20 21 22 23 24 25 26 27 28 29 30 31 32 33 34 35 36 37 38 39 40 41 42 43 44 45 46 47 48 49 50
000
ASUS43 KFSD 251910
RWRSD

WEATHER ROUNDUP FOR SOUTH DAKOTA
NATIONAL WEATHER SERVICE SIOUX FALLS SD
100 PM CST THU DEC 25 2014

NOTE: "FAIR" INDICATES FEW OR NO CLOUDS BELOW 12,000 FEET WITH NO
SIGNIFICANT WEATHER AND/OR OBSTRUCTIONS TO VISIBILITY.


SDZ001>005-009-010-012>017-252000-
NORTHWEST AND NORTH CENTRAL SOUTH DAKOTA

CITY           SKY/WX    TMP DP  RH WIND       PRES   REMARKS
BUFFALO          N/A     27  21  78 N16       29.72S WCI  15
FAITH            N/A     28  21  75 N20       29.75F WCI  15
MOBRIDGE       CLOUDY    30  24  78 N13       29.76R WCI  20
$$

SDZ012>016-024>037-041>051-057-063-072>074-252000-
SOUTHWEST AND SOUTH CENTRAL SOUTH DAKOTA

CITY           SKY/WX    TMP DP  RH WIND       PRES   REMARKS
RAPID CTY ARPT LGT SNOW  26  23  88 N18       29.74S VSB 1   WCI  13
PIERRE         LGT SNOW  30  28  92 N18       29.72F FOG     WCI  18
CUSTER         LGT SNOW  23  19  85 NE12      29.59F VSB 1   WCI  12
ELLSWORTH AFB  FLURRIES  26  25  94 N14       29.74  WCI  15
PHILIP         LGT SNOW  31  27  85 N20       29.73S FOG     WCI  19
PINE RIDGE     SNOW      31  27  85 N15       29.66S VSB 1/2 WCI  20
SPEARFISH      LGT SNOW  23  21  93 N6        29.76S VSB 3/4 WCI  16
WINNER         MIX PCPN  32  29  88 N18       29.67F VSB 1   WCI  20
$$

SDZ004>011-016>023-039-040-252000-
NORTHEAST SOUTH DAKOTA

CITY           SKY/WX    TMP DP  RH WIND       PRES   REMARKS
ABERDEEN       CLOUDY    30  24  78 N16       29.76F WCI  19
WATERTOWN      LGT SNOW  32  28  85 NE9       29.70R FOG     WCI  24
SISSETON         N/A     27  25  92 N14       29.75  WCI  16
$$

SDZ017-020-022-023-036>040-048>070-252000-
SOUTHEAST SOUTH DAKOTA

CITY           SKY/WX    TMP DP  RH WIND       PRES   REMARKS
SIOUX FALLS    PTSUNNY   35  28  75 NE14      29.65F WCI  26
HURON          LGT SNOW  30  28  92 N12       29.72S FOG     WCI  20
CHAMBERLAIN    LGT SNOW  30  28  92 N16G23    29.68F WCI  19
MITCHELL       CLOUDY    33  31  92 N14       29.68F WCI  23
YANKTON        MOSUNNY   36  28  75 NE9       29.62F
$$

ABBREVIATIONS USED IN REMARKS
   TC - TEMPERATURE IN CELSIUS
  WCI - WIND CHILL INDEX
   HX - HEAT INDEX
  VSB - VISIBILITY



USA.gov is the U.S. government's official web portal to all federal, state and local government web resources and services.